sat.trackr.live / text

‹ back to catalog

STARLINK-6062

NORAD 56104 · 2023-046M

PAYLOAD ACTIVE UNKNOWN

§ Identity

Operator
Country
US
Launch date
2023-03-29
Launch site
AFETR
Launch vehicle
Mass (kg)
RCS (m²)

Purposes: comms

External: N2YO · Heavens-Above · Gunter

§ Orbital elements

Epoch: 2026-05-25T04:28:26.666400Z

Period
94.27 min
Inclination
43.0046°
Eccentricity
0.0001249
Mean motion
15.27569048 rev/d
Perigee alt
482.2 km
Apogee alt
483.9 km
Semi-major
6,861.2 km
B*
1.7547e-5
RAAN
89.2873°
Arg perigee
258.6636°
Mean anomaly
101.4075°
Rev number
17,373

§ Raw data

STARLINK-60621 56104U 23046M   26145.18641975  .00000221  00000+0  17547-4 0  99922 56104  43.0046  89.2873 0001249 258.6636 101.4075 15.27569048173730

JSON: /api/v1/satellites/56104 · /tle

For live sub-satellite position, see the globe view (requires WebGL).

§ Visibility from observer

Set your observer location to see the next 7 days of passes ≥ 10°. The values pass through the URL so the page stays shareable.

No JS? Fill the form by hand. The geolocation button needs JavaScript.